FW6883 Weather Reports


Display with metric or nautical units.
time (UTC)temp
F
wind
direction
speed
MPH
gust
MPH
rain 1hr
in
rain 24hr
in
rain mn
in
humidity
%
barometer
mb
20260904010029 62 110 6.0 12.0 0.00 0.00 0.00 49 1003.9
20260904004527 62 108 5.0 12.0 0.00 0.00 0.00 46 1003.9
20260904003020 63 107 5.0 14.0 0.00 0.00 0.00 44 1004.2
20260904001512 64 95 6.0 11.0 0.00 0.00 0.00 40 1004.2
20260904000006 64 95 2.0 10.0 0.00 0.00 0.00 40 1004.3
20260903234501 64 48 5.0 12.0 0.00 0.00 0.00 39 1004.4
20260903233056 63 116 6.0 12.0 0.00 0.00 0.00 39 1004.7
20260903231550 64 113 6.0 12.0 0.00 0.00 0.00 37 1004.6
20260903230044 64 75 6.0 12.0 0.00 0.00 0.00 35 1004.9
20260903224541 64 96 6.0 12.0 0.00 0.00 0.00 35 1004.9
20260903223036 64 75 6.0 10.0 0.00 0.00 0.00 34 1005.1
20260903221527 64 113 5.0 12.0 0.00 0.00 0.00 35 1005.2
20260903220033 64 74 4.0 10.0 0.00 0.00 0.00 35 1005.4
20260903214516 64 70 7.0 12.0 0.00 0.00 0.00 36 1005.5
20260903213009 64 98 5.0 12.0 0.00 0.00 0.00 33 1005.5
20260903211504 64 61 4.0 11.0 0.00 0.00 0.00 31 1005.6
20260903210138 64 80 4.0 11.0 0.00 0.00 0.00 31 1005.6
20260903204602 64 79 3.0 12.0 0.00 0.00 0.00 27 1005.7
20260903203048 64 116 4.0 10.0 0.00 0.00 0.00 26 1005.9
20260903201540 64 103 3.0 10.0 0.00 0.00 0.00 28 1005.9
20260903200034 64 90 4.0 10.0 0.00 0.00 0.00 28 1005.6
20260903194535 64 108 4.0 13.0 0.00 0.00 0.00 24 1005.9
20260903193022 65 56 3.0 10.0 0.00 0.00 0.00 21 1006.0
20260903191528 64 65 3.0 10.0 0.00 0.00 0.00 24 1006.3
20260903190011 65 93 4.0 8.0 0.00 0.00 0.00 23 1006.4
20260903184504 65 90 4.0 8.0 0.00 0.00 0.00 24 1006.5
20260903183102 65 76 4.0 11.0 0.00 0.00 0.00 23 1006.6
20260903181557 64 108 4.0 11.0 0.00 0.00 0.00 22 1006.6
20260903180052 64 103 5.0 11.0 0.00 0.00 0.00 22 1006.5
20260903174545 64 108 4.0 10.0 0.00 0.00 0.00 20 1006.5
20260903173040 63 77 5.0 10.0 0.00 0.00 0.00 22 1006.6
20260903171535 64 79 4.0 8.0 0.00 0.00 0.00 23 1006.2
20260903170039 63 91 3.0 8.0 0.00 0.00 0.00 23 1006.2
20260903164523 63 109 4.0 9.0 0.00 0.00 0.00 25 1006.4
20260903163023 63 99 2.0 7.0 0.00 0.00 0.00 22 1006.2
20260903161510 63 112 3.0 9.0 0.00 0.00 0.00 22 1006.1
20260903160005 63 104 2.0 8.0 0.00 0.00 0.00 22 1006.2
20260903154700 62 103 2.0 6.0 0.00 0.00 0.00 22 1006.2
20260903153056 62 108 3.0 6.0 0.00 0.00 0.00 22 1006.4
20260903151600 62 111 2.0 5.0 0.00 0.00 0.00 19 1006.1
20260903150048 61 102 2.0 5.0 0.00 0.00 0.00 15 1006.2
20260903144535 60 131 1.0 3.0 0.00 0.00 0.00 9 1006.4
20260903143037 60 110 1.0 3.0 0.00 0.00 0.00 10 1006.2
20260903141524 58 114 0.0 3.0 0.00 0.00 0.00 7 1005.9
20260903140024 58 117 0.0 2.0 0.00 0.00 0.00 8 1006.0
20260903134523 57 115 1.0 2.0 0.00 0.00 0.00 7 1006.1
20260903133019 57 113 1.0 3.0 0.00 0.00 0.00 6 1006.0
20260903131509 57 124 1.0 3.0 0.00 0.00 0.00 5 1006.0
20260903130002 57 110 1.0 3.0 0.00 0.00 0.00 5 1006.1
20260903124611 57 109 1.0 4.0 0.00 0.00 0.00 7 1006.3
20260903123051 57 117 0.0 2.0 0.00 0.00 0.00 12 1006.1
20260903121545 57 117 2.0 4.0 0.00 0.00 0.00 12 1006.3
20260903120053 57 110 0.0 4.0 0.00 0.00 0.00 11 1006.4
20260903114534 56 113 1.0 7.0 0.00 0.00 0.00 11 1006.3
20260903113028 57 113 1.0 6.0 0.00 0.00 0.00 11 1006.5
20260903111522 57 127 2.0 6.0 0.00 0.00 0.00 10 1006.6
20260903110017 57 110 1.0 4.0 0.00 0.00 0.00 11 1006.7
20260903104511 56 108 1.0 4.0 0.00 0.00 0.00 11 1006.5
20260903103005 56 137 0.0 3.0 0.00 0.00 0.00 12 1006.7
20260903101602 57 110 1.0 5.0 0.00 0.00 0.00 11 1006.8
20260903100053 57 108 0.0 3.0 0.00 0.00 0.00 10 1006.6
20260903094621 57 103 1.0 5.0 0.00 0.00 0.00 11 1006.7
20260903093045 57 117 0.0 3.0 0.00 0.00 0.00 11 1007.0
20260903091540 58 180 1.0 3.0 0.00 0.00 0.00 10 1007.0
20260903090028 57 105 0.0 3.0 0.00 0.00 0.00 10 1007.1
20260903084531 58 115 1.0 4.0 0.00 0.00 0.00 10 1007.4
20260903083025 58 110 3.0 6.0 0.00 0.00 0.00 11 1007.5
20260903081517 58 120 2.0 5.0 0.00 0.00 0.00 10 1007.5
20260903080034 58 118 2.0 4.0 0.00 0.00 0.00 12 1007.6
20260903074512 58 120 1.0 3.0 0.00 0.00 0.00 11 1007.6
20260903073020 58 117 0.0 2.0 0.00 0.00 0.00 11 1007.5
20260903071505 58 108 1.0 6.0 0.00 0.00 0.00 10 1007.5
20260903064606 58 131 0.0 2.0 0.00 0.00 0.00 10 1007.6
20260903063055 58 120 1.0 3.0 0.00 0.00 0.00 10 1007.6
20260903061555 58 112 0.0 2.0 0.00 0.00 0.00 10 1007.6
20260903060055 58 112 0.0 4.0 0.00 0.00 0.00 16 1007.5
20260903054552 57 115 0.0 2.0 0.00 0.00 0.00 15 1007.6
20260903053102 57 115 1.0 3.0 0.00 0.00 0.00 17 1007.7
20260903051549 56 122 0.0 2.0 0.00 0.00 0.00 32 1007.7
20260903050045 56 108 0.0 2.0 0.00 0.00 0.00 33 1007.8
20260903044543 57 110 2.0 5.0 0.00 0.00 0.00 26 1007.5
20260903043141 57 105 2.0 5.0 0.00 0.00 0.00 24 1007.3
20260903041545 58 106 2.0 7.0 0.00 0.00 0.00 20 1007.5
20260903040041 58 102 3.0 8.0 0.00 0.00 0.00 18 1007.1
20260903034535 57 117 0.0 2.0 0.00 0.00 0.00 21 1006.8
20260903033032 57 139 2.0 4.0 0.00 0.00 0.00 38 1007.0
20260903031529 55 119 1.0 6.0 0.00 0.00 0.00 42 1007.0
20260903030033 55 107 2.0 7.0 0.00 0.00 0.00 42 1006.9
20260903024527 55 120 1.0 3.0 0.00 0.00 0.00 43 1007.0
20260903023025 56 104 1.0 4.0 0.00 0.00 0.00 43 1006.8
20260903021522 57 104 3.0 6.0 0.00 0.00 0.00 40 1007.0
20260903020018 59 122 4.0 10.0 0.00 0.00 0.00 37 1007.2
20260903014515 61 101 3.0 10.0 0.00 0.00 0.00 33 1007.2
20260903013013 63 109 3.0 9.0 0.00 0.00 0.00 30 1007.4
20260903011512 63 97 2.0 12.0 0.00 0.00 0.00 30 1007.5